This is the latest recevied weather packets stored in our database for station/object SQ7IQO. If no packets are shown the sender has not sent any weather packets the latest 10 day(s).
| Time | Temp. | Humidity | Pressure | Rain* | Wind** | Luminosity | Snow |
|---|---|---|---|---|---|---|---|
| 1788084943 | 25.56° C | 46% | 1016.5 hPa | 0 mm | 0.45 m/s, ° | - | - |
| 1788084883 | 25.56° C | 48% | 1229.1 hPa | 0 mm | 0.89 m/s, ° | - | - |
| 1788084823 | 25.56° C | 48% | 1016.5 hPa | 0 mm | 0.45 m/s, ° | - | - |
| 1788084763 | 25.56° C | 48% | 1016.6 hPa | 0 mm | 0 m/s | - | - |
| 1788084703 | 25.56° C | 47% | 1016.5 hPa | 0 mm | 0 m/s | - | - |
| 1788084643 | 25.56° C | 48% | 1016.5 hPa | 0 mm | 0.89 m/s, ° | - | - |
| 1788084583 | 25.56° C | 48% | 1016.5 hPa | 0 mm | 0.45 m/s, ° | - | - |
| 1788084523 | 25.56° C | 48% | 1015.2 hPa | 0 mm | 0.45 m/s, ° | - | - |
| 1788084463 | 25.56° C | 47% | 2962.7 hPa | 0 mm | 0.45 m/s, ° | - | - |
| 1788084403 | 26.11° C | 47% | 1080.1 hPa | 0 mm | 0.45 m/s, ° | - | - |
| 1788084343 | 26.11° C | 46% | 1016.5 hPa | 0 mm | 0.45 m/s, ° | - | - |
| 1788084283 | 26.11° C | 47% | 2658.1 hPa | 0 mm | 0.45 m/s, ° | - | - |
| 1788084223 | 25.56° C | 48% | 1016.6 hPa | 0 mm | 0 m/s | - | - |
| 1788084163 | 25.56° C | 47% | 1016.6 hPa | 0 mm | 0.45 m/s, ° | - | - |
| 1788084103 | 25.56° C | 47% | 1016.5 hPa | 0 mm | 0.89 m/s, ° | - | - |
| 1788084043 | 25.56° C | 49% | - | 0 mm | 0.45 m/s, ° | - | - |
| 1788083983 | 25.56° C | 48% | 1016.6 hPa | 0 mm | 0.89 m/s, ° | - | - |
| 1788083923 | 26.11° C | 47% | 1016.6 hPa | 0 mm | 0.89 m/s, ° | - | - |
| 1788083863 | 26.11° C | 49% | 1016.6 hPa | 0 mm | 0.45 m/s, ° | - | - |
| 1788083803 | 26.11° C | 49% | 1716.5 hPa | 0 mm | 0 m/s | - | - |
| 1788083743 | 25.56° C | 48% | 1016.6 hPa | 0 mm | 0.45 m/s, ° | - | - |
| 1788083683 | 25.56° C | 49% | 1010.8 hPa | 0 mm | 0.45 m/s, ° | - | - |
| 1788083623 | 26.11° C | 48% | 1016.6 hPa | 0 mm | 1.34 m/s, ° | - | - |
| 1788083563 | 26.11° C | 49% | 1229.1 hPa | 0 mm | 0 m/s | - | - |
| 1788083503 | 26.11° C | 49% | 1229.2 hPa | 0 mm | 0 m/s | - | - |
* Rain latest hour (hover to see other rain measurements)
** Current wind speed in m/s (hover to see current wind gust speed)